Hallock, MN

7:44 AM CDT on June 25, 2017 (GMT -0500)
Hallock Municipal

Weather History for KHCO - October, 2013

Change the Weather History Date:

Friday, October 4, 2013

  Actual Average Record
Temperature  
Mean Temperature 40 °F -  
Max Temperature 44 °F 60 °F 83 °F (1943)
Min Temperature 37 °F 35 °F 15 °F (1935)
Degree Days  
Heating Degree Days 24    
Moisture  
Dew Point 32 °F    
Average Humidity 68    
Maximum Humidity 81    
Minimum Humidity 57    
Precipitation  
Precipitation 0.00 in - - ()
Sea Level Pressure  
Sea Level Pressure 30.25 in    
Wind  
Wind Speed 14 mph (NNE)    
Max Wind Speed 20 mph    
Max Gust Speed 26 mph    
Visibility 10 miles    
Events Rain    
Averages and records for this station are not official NWS values.
T = Trace of Precipitation, MM = Missing Value Source: NWS Daily Summary

Daily Weather History Graph

Daily Weather History Graph

Search for Another Location

Airport or City:

Trip Planner

Search our weather history database for the weather conditions in past years. The results will help you decide how hot, cold, wet, or windy it might be!

Date:

Astronomy

Oct. 04, 2013 Rise Set
Actual Time 7:32 AM CDT 6:59 PM CDT
Civil Twilight 7:00 AM CDT 7:31 PM CDT
Nautical Twilight 6:24 AM CDT 8:07 PM CDT
Astronomical Twilight 5:47 AM CDT 8:44 PM CDT
Moon 7:09 AM CDT (10/4) 6:39 PM CDT (10/4)
Length of Visible Light 12h 30m
Length of Day
11h 27m
Waning Crescent, 0% of the Moon is Illuminated
Oct 4
Waning Crescent
Oct 4
New
Oct 11
First Quarter
Oct 18
Full
Oct 26
Last Quarter

Hourly Weather History & Observations

Time (CDT) Temp. Windchill Dew Point Humidity Pressure Visibility Wind Dir Wind Speed Gust Speed Precip Events Conditions
12:13 AM 44.6 °F 38.8 °F 39.2 °F 81% 30.20 in 10.0 mi North 11.5 mph - N/A   Mostly Cloudy
12:33 AM 44.6 °F 38.8 °F 39.2 °F 81% 30.20 in 10.0 mi North 11.5 mph - N/A   Mostly Cloudy
12:53 AM 44.6 °F 38.1 °F 39.2 °F 81% 30.20 in 10.0 mi North 13.8 mph - N/A   Overcast
1:13 AM 44.6 °F 37.2 °F 37.4 °F 76% 30.20 in 10.0 mi North 17.3 mph 21.9 mph N/A   Mostly Cloudy
1:33 AM 44.6 °F 37.8 °F 37.4 °F 76% 30.21 in 10.0 mi North 15.0 mph - N/A   Scattered Clouds
1:53 AM 44.6 °F 38.4 °F 37.4 °F 76% 30.22 in 10.0 mi North 12.7 mph - N/A   Mostly Cloudy
2:14 AM 42.8 °F 35.8 °F 35.6 °F 76% 30.22 in 10.0 mi NNE 13.8 mph - N/A   Overcast
2:33 AM 42.8 °F 36.6 °F 35.6 °F 76% 30.22 in 10.0 mi North 11.5 mph - N/A   Overcast
2:53 AM 42.8 °F 35.8 °F 35.6 °F 76% 30.22 in 10.0 mi NNE 13.8 mph 18.4 mph N/A   Overcast
3:14 AM 42.8 °F 35.4 °F 33.8 °F 70% 30.22 in 10.0 mi North 15.0 mph 18.4 mph N/A   Scattered Clouds
3:33 AM 42.8 °F 35.8 °F 33.8 °F 70% 30.22 in 10.0 mi North 13.8 mph 19.6 mph N/A   Scattered Clouds
3:53 AM 41.0 °F 32.8 °F 32.0 °F 70% 30.23 in 10.0 mi North 16.1 mph - N/A   Clear
4:14 AM 41.0 °F 33.5 °F 30.2 °F 65% 30.23 in 10.0 mi North 13.8 mph - N/A   Clear
4:33 AM 39.2 °F 30.8 °F 30.2 °F 70% 30.23 in 10.0 mi North 15.0 mph - N/A   Clear
4:53 AM 39.2 °F 30.8 °F 30.2 °F 70% 30.23 in 10.0 mi NNE 15.0 mph - N/A   Clear
5:14 AM 39.2 °F 32.0 °F 30.2 °F 70% 30.24 in 10.0 mi NNE 11.5 mph - N/A   Clear
5:33 AM 39.2 °F 30.5 °F 30.2 °F 70% 30.24 in 10.0 mi North 16.1 mph - N/A   Clear
5:53 AM 39.2 °F 30.5 °F 30.2 °F 70% 30.25 in 10.0 mi North 16.1 mph - N/A   Clear
6:13 AM 39.2 °F 31.6 °F 30.2 °F 70% 30.26 in 10.0 mi North 12.7 mph 19.6 mph N/A   Clear
6:33 AM 39.2 °F 31.2 °F 30.2 °F 70% 30.27 in 10.0 mi North 13.8 mph - N/A   Scattered Clouds
6:53 AM 39.2 °F 31.6 °F 30.2 °F 70% 30.27 in 10.0 mi North 12.7 mph - N/A   Clear
7:13 AM 39.2 °F 32.0 °F 30.2 °F 70% 30.28 in 10.0 mi North 11.5 mph 17.3 mph N/A   Mostly Cloudy
7:33 AM 39.2 °F 32.0 °F 30.2 °F 70% 30.29 in 10.0 mi North 11.5 mph - N/A   Scattered Clouds
7:53 AM 37.4 °F 29.8 °F 30.2 °F 75% 30.30 in 10.0 mi North 11.5 mph - N/A   Clear
8:13 AM 39.2 °F 31.2 °F 32.0 °F 75% 30.30 in 10.0 mi North 13.8 mph - N/A   Scattered Clouds
8:33 AM 39.2 °F 31.2 °F 32.0 °F 75% 30.30 in 10.0 mi North 13.8 mph - N/A   Mostly Cloudy
8:53 AM 39.2 °F 32.0 °F 32.0 °F 75% 30.31 in 10.0 mi North 11.5 mph - N/A   Overcast
9:13 AM 39.2 °F 31.6 °F 32.0 °F 75% 30.31 in 10.0 mi North 12.7 mph - N/A   Overcast
9:33 AM 39.2 °F 30.8 °F 32.0 °F 75% 30.30 in 10.0 mi North 15.0 mph - N/A   Scattered Clouds
9:53 AM 39.2 °F 30.5 °F 32.0 °F 75% 30.30 in 10.0 mi NNE 16.1 mph 20.7 mph N/A   Mostly Cloudy
10:13 AM 39.2 °F 30.5 °F 32.0 °F 75% 30.29 in 10.0 mi NNE 16.1 mph - N/A   Scattered Clouds
10:33 AM 41.0 °F 34.3 °F 32.0 °F 70% 30.30 in 10.0 mi NNE 11.5 mph - N/A   Clear
10:53 AM 41.0 °F 33.5 °F 32.0 °F 70% 30.30 in 10.0 mi North 13.8 mph - N/A   Clear
11:13 AM 42.8 °F 35.8 °F 32.0 °F 66% 30.30 in 10.0 mi North 13.8 mph 21.9 mph N/A   Scattered Clouds
11:33 AM 42.8 °F 35.1 °F 30.2 °F 61% 30.30 in 10.0 mi NNE 16.1 mph 23.0 mph N/A   Scattered Clouds
11:53 AM 42.8 °F 34.8 °F 30.2 °F 61% 30.30 in 10.0 mi North 17.3 mph 20.7 mph N/A   Clear
12:13 PM 42.8 °F 34.8 °F 30.2 °F 61% 30.29 in 10.0 mi North 17.3 mph 25.3 mph N/A   Clear
12:33 PM 42.8 °F 34.3 °F 30.2 °F 61% 30.28 in 10.0 mi NNE 19.6 mph - N/A   Clear
12:53 PM 42.8 °F 34.8 °F 30.2 °F 61% 30.29 in 10.0 mi North 17.3 mph 24.2 mph N/A   Clear
1:13 PM 42.8 °F 34.5 °F 30.2 °F 61% 30.29 in 10.0 mi North 18.4 mph - N/A   Clear
1:33 PM 42.8 °F 35.1 °F 30.2 °F 61% 30.28 in 10.0 mi North 16.1 mph 23.0 mph N/A   Clear
1:53 PM 42.8 °F 34.5 °F 30.2 °F 61% 30.27 in 10.0 mi NNE 18.4 mph 23.0 mph N/A   Clear
2:13 PM 42.8 °F 35.1 °F 30.2 °F 61% 30.27 in 10.0 mi North 16.1 mph 20.7 mph N/A   Clear
2:33 PM 42.8 °F 35.8 °F 30.2 °F 61% 30.27 in 10.0 mi North 13.8 mph 19.6 mph N/A   Clear
2:53 PM 42.8 °F 34.5 °F 30.2 °F 61% 30.26 in 10.0 mi North 18.4 mph 24.2 mph N/A   Clear
3:13 PM 44.6 °F 37.8 °F 30.2 °F 57% 30.26 in 10.0 mi North 15.0 mph 24.2 mph N/A   Clear
3:33 PM 44.6 °F 37.2 °F 30.2 °F 57% 30.26 in 10.0 mi NNE 17.3 mph 23.0 mph N/A   Clear
3:53 PM 44.6 °F 37.2 °F 30.2 °F 57% 30.26 in 10.0 mi North 17.3 mph 23.0 mph N/A   Clear
4:13 PM 44.6 °F 37.4 °F 30.2 °F 57% 30.26 in 10.0 mi North 16.1 mph - N/A   Clear
4:33 PM 44.6 °F 37.8 °F 30.2 °F 57% 30.25 in 10.0 mi NNE 15.0 mph 21.9 mph N/A   Clear
4:53 PM 44.6 °F 37.2 °F 30.2 °F 57% 30.25 in 10.0 mi NNE 17.3 mph - N/A   Clear
5:13 PM 44.6 °F 38.1 °F 32.0 °F 61% 30.25 in 10.0 mi NNE 13.8 mph - N/A   Clear
5:33 PM 44.6 °F 37.4 °F 30.2 °F 57% 30.25 in 10.0 mi NNE 16.1 mph 23.0 mph N/A   Clear
5:53 PM 44.6 °F 37.4 °F 30.2 °F 57% 30.25 in 10.0 mi NNE 16.1 mph 26.5 mph N/A   Scattered Clouds
6:14 PM 44.6 °F 37.4 °F 30.2 °F 57% 30.25 in 10.0 mi North 16.1 mph 24.2 mph N/A   Scattered Clouds
6:33 PM 44.6 °F 37.4 °F 32.0 °F 61% 30.25 in 10.0 mi NNE 16.1 mph - N/A   Scattered Clouds
6:53 PM 42.8 °F 35.1 °F 32.0 °F 66% 30.26 in 10.0 mi North 16.1 mph 20.7 mph N/A   Scattered Clouds
7:13 PM 42.8 °F 36.2 °F 32.0 °F 66% 30.26 in 10.0 mi North 12.7 mph - N/A   Overcast
7:33 PM 42.8 °F 35.4 °F 33.8 °F 70% 30.25 in 10.0 mi North 15.0 mph 19.6 mph N/A   Overcast
7:53 PM 42.8 °F 34.8 °F 32.0 °F 66% 30.26 in 10.0 mi North 17.3 mph 21.9 mph N/A   Overcast
8:13 PM 42.8 °F 34.8 °F 33.8 °F 70% 30.26 in 10.0 mi North 17.3 mph 23.0 mph N/A   Overcast
8:33 PM 42.8 °F 34.8 °F 33.8 °F 70% 30.26 in 10.0 mi North 17.3 mph - N/A   Overcast
8:53 PM 42.8 °F 35.8 °F 33.8 °F 70% 30.26 in 10.0 mi NNE 13.8 mph 21.9 mph N/A   Light Drizzle
9:14 PM 42.8 °F 35.1 °F 33.8 °F 70% 30.25 in 10.0 mi North 16.1 mph 23.0 mph N/A Rain Light Rain
9:33 PM 42.8 °F 35.1 °F 33.8 °F 70% 30.24 in 10.0 mi NNE 16.1 mph 24.2 mph N/A   Overcast
9:53 PM 42.8 °F 35.4 °F 33.8 °F 70% 30.23 in 10.0 mi NNE 15.0 mph 21.9 mph N/A   Overcast
10:13 PM 42.8 °F 34.5 °F 32.0 °F 66% 30.23 in 10.0 mi NNE 18.4 mph 21.9 mph N/A   Overcast
10:34 PM 42.8 °F 34.5 °F 33.8 °F 70% 30.22 in 10.0 mi NNE 18.4 mph 23.0 mph N/A   Mostly Cloudy
10:53 PM 42.8 °F 34.8 °F 33.8 °F 70% 30.21 in 10.0 mi NNE 17.3 mph 21.9 mph N/A   Mostly Cloudy
11:13 PM 42.8 °F 35.8 °F 33.8 °F 70% 30.21 in 10.0 mi NNE 13.8 mph 21.9 mph N/A   Overcast
11:34 PM 42.8 °F 35.8 °F 32.0 °F 66% 30.20 in 10.0 mi NNE 13.8 mph 21.9 mph N/A   Overcast
11:53 PM 41.0 °F 33.5 °F 33.8 °F 76% 30.20 in 10.0 mi NNE 13.8 mph - N/A Rain Light Rain